FW3934 Weather Reports


time (UTC)temp
C
wind
direction
speed
KPH
gust
KPH
rain 1hr
cm
rain 24hr
cm
rain mn
cm
humidity
%
barometer
mb
20260905191049 33 345 1.6 3.2 0.03 1.35 1.35 70 1014.4
20260905190534 33 345 1.6 3.2 0.03 1.35 1.35 71 1014.5
20260905190030 33 345 1.6 6.4 0.03 1.35 1.35 69 1014.5
20260905185526 33 345 1.6 6.4 0.03 1.35 1.35 71 1014.5
20260905185021 33 344 1.6 4.8 0.03 1.35 1.35 69 1014.7
20260905184526 32 344 1.6 4.8 0.03 1.35 1.35 70 1014.9
20260905184014 32 0 3.2 6.4 0.05 1.35 1.35 69 1014.9
20260905183511 32 41 1.6 6.4 0.05 1.35 1.35 68 1015.1
20260905182510 32 70 1.6 4.8 0.03 1.32 1.32 72 1015.1
20260905182009 32 67 1.6 4.8 0.03 1.32 1.32 69 1015.1
20260905181508 32 67 3.2 6.4 0.03 1.32 1.32 72 1015.1
20260905181010 32 343 1.6 6.4 0.03 1.32 1.32 69 1015.1
20260905180007 32 303 1.6 8.0 0.03 1.32 1.32 75 1015.2
20260905175500 32 55 1.6 4.8 0.03 1.32 1.32 74 1015.4
20260905174459 31 30 0.0 4.8 0.05 1.32 1.32 74 1015.5
20260905173958 31 309 0.0 3.2 0.03 1.30 1.30 77 1015.4
20260905173449 31 309 0.0 3.2 0.03 1.30 1.30 75 1015.4
20260905172947 31 309 0.0 4.8 0.03 1.30 1.30 76 1015.4
20260905171927 30 303 1.6 6.4 0.03 1.30 1.30 75 1015.4
20260905171422 30 303 1.6 6.4 0.03 1.30 1.30 76 1015.5
20260905170923 30 335 0.0 4.8 0.03 1.30 1.30 76 1015.6
20260905170415 30 97 1.6 6.4 0.05 1.30 1.30 78 1015.5
20260905165906 30 98 1.6 6.4 0.05 1.30 1.30 77 1015.6
20260905165407 29 76 1.6 6.4 0.05 1.30 1.30 78 1015.8
20260905164900 29 256 0.0 4.8 0.05 1.30 1.30 79 1015.6
20260905164401 28 256 1.6 6.4 0.03 1.27 1.27 80 1015.5
20260905163349 28 65 1.6 6.4 0.05 1.27 1.27 82 1015.5
20260905162851 28 141 1.6 6.4 0.05 1.27 1.27 80 1015.6
20260905162344 28 197 1.6 4.8 0.08 1.27 1.27 83 1015.5
20260905161836 28 111 0.0 4.8 0.08 1.27 1.27 84 1015.4
20260905161315 27 175 0.0 4.8 0.10 1.27 1.27 85 1015.5
20260905160307 27 155 0.0 0.0 0.10 1.24 1.24 88 1015.6
20260905155805 26 155 0.0 4.8 0.13 1.24 1.24 88 1015.7
20260905155306 26 155 1.6 4.8 0.15 1.24 1.24 88 1015.8
20260905154746 26 250 1.6 4.8 0.18 1.24 1.24 88 1015.8
20260905153745 25 340 0.0 4.8 0.20 1.22 1.22 90 1015.8
20260905153245 25 261 0.0 3.2 0.23 1.22 1.22 91 1015.6
20260905152743 25 296 0.0 0.0 0.25 1.22 1.22 92 1015.5
20260905152236 25 57 0.0 0.0 0.25 1.19 1.19 93 1015.6
20260905151730 25 59 1.6 4.8 0.25 1.19 1.19 94 1015.7
20260905150724 24 128 1.6 3.2 0.28 1.14 1.17 94 1015.8
20260905150212 23 85 0.0 3.2 0.30 1.14 1.14 94 1015.8
20260905145713 23 85 0.0 4.8 0.30 1.12 1.12 94 1015.9
20260905145210 23 96 1.6 4.8 0.33 1.09 1.09 94 1015.9
20260905144706 23 139 1.6 4.8 0.36 1.07 1.07 94 1016.0
20260905144205 23 103 0.0 4.8 0.38 1.04 1.04 94 1015.8
20260905143702 22 225 1.6 4.8 0.43 1.02 1.02 94 1015.7
20260905143202 22 305 1.6 6.4 0.51 0.99 0.99 94 1015.7
20260905142702 22 46 1.6 8.0 0.58 0.97 0.97 94 1015.8
20260905142159 22 38 1.6 8.0 0.66 0.94 0.97 94 1015.6
20260905141659 22 279 0.0 4.8 0.86 0.91 0.94 94 1015.4
20260905141159 21 267 0.0 4.8 0.89 0.89 0.91 93 1015.2
20260905140654 21 148 0.0 3.2 0.86 0.86 0.89 93 1015.4
20260905140154 21 41 0.0 3.2 0.84 0.84 0.84 93 1015.2
20260905135651 21 321 1.6 8.0 0.79 0.79 0.81 93 1015.0
20260905135135 21 321 1.6 8.0 0.76 0.76 0.76 92 1015.0
20260905133115 22 68 4.8 11.3 0.46 0.46 0.48 92 1015.2
20260905132615 22 181 8.0 24.1 0.38 0.38 0.38 92 1015.0
20260905132112 22 153 6.4 24.1 0.28 0.28 0.28 92 1015.0
20260905131612 23 34 1.6 6.4 0.03 0.03 0.05 93 1016.5
20260905131112 23 236 1.6 6.4 0.00 0.00 0.00 94 1015.9
20260905130605 23 94 1.6 9.7 0.00 0.00 0.00 94 1015.5
20260905124558 23 283 0.0 4.8 0.00 0.00 0.00 94 1015.5
20260905123050 23 34 0.0 3.2 0.00 0.00 0.00 94 1015.4
20260905122548 23 34 0.0 1.6 0.00 0.00 0.00 94 1014.9
20260905122025 23 34 0.0 0.0 0.00 0.00 0.00 94 1014.8
20260905121513 23 34 0.0 0.0 0.00 0.00 0.00 94 1014.8
20260905121007 23 34 0.0 0.0 0.00 0.00 0.00 94 1014.7
20260905120508 23 34 0.0 0.0 0.00 0.00 0.00 94 1014.7
20260905114925 23 34 0.0 0.0 0.00 0.00 0.00 94 1014.5
20260905113906 23 34 0.0 1.6 0.00 0.00 0.00 94 1014.3
20260905113405 23 34 0.0 1.6 0.00 0.00 0.00 94 1014.4
20260905112905 23 34 0.0 1.6 0.00 0.00 0.00 94 1014.3
20260905111904 23 34 0.0 3.2 0.00 0.00 0.00 94 1014.2
20260905111404 22 34 0.0 1.6 0.00 0.00 0.00 93 1014.1
20260905110855 22 34 0.0 1.6 0.00 0.00 0.00 93 1014.1
20260905105837 22 34 0.0 1.6 0.00 0.00 0.00 93 1014.1
20260905105310 22 34 0.0 1.6 0.00 0.00 0.00 93 1014.3
20260905104811 22 34 0.0 4.8 0.00 0.00 0.00 93 1014.3
20260905104305 22 34 0.0 4.8 0.00 0.00 0.00 93 1014.3
20260905103805 22 37 0.0 0.0 0.00 0.00 0.00 93 1014.4
20260905103304 22 37 0.0 0.0 0.00 0.00 0.00 93 1014.2
20260905102801 22 37 0.0 0.0 0.00 0.00 0.00 93 1014.3
20260905102257 23 37 0.0 0.0 0.00 0.00 0.00 93 1014.3
20260905101736 23 37 0.0 0.0 0.00 0.00 0.00 93 1014.2
20260905101235 22 37 0.0 0.0 0.00 0.00 0.00 93 1014.2
20260905100703 22 37 0.0 0.0 0.00 0.00 0.00 93 1014.1
20260905095702 23 37 0.0 0.0 0.00 0.00 0.00 93 1014.3
20260905095206 23 37 0.0 0.0 0.00 0.00 0.00 93 1014.2
20260905094657 23 37 0.0 0.0 0.00 0.00 0.00 93 1014.3
20260905094149 23 37 0.0 0.0 0.00 0.00 0.00 93 1014.2
20260905092621 23 37 0.0 0.0 0.00 0.00 0.00 93 1014.2
20260905091606 23 37 0.0 0.0 0.00 0.00 0.00 93 1014.1
20260905091110 23 37 0.0 0.0 0.00 0.00 0.00 93 1014.1
20260905090558 23 37 0.0 0.0 0.00 0.00 0.00 93 1014.0
20260905090058 23 37 0.0 0.0 0.00 0.00 0.00 93 1014.0
20260905085555 23 37 0.0 0.0 0.00 0.00 0.00 92 1014.0
20260905085040 23 37 0.0 0.0 0.00 0.00 0.00 92 1013.9
20260905084524 23 37 0.0 0.0 0.00 0.00 0.00 92 1013.7
20260905084005 23 37 0.0 0.0 0.00 0.00 0.00 92 1013.7
20260905083505 23 37 0.0 0.0 0.00 0.00 0.00 92 1013.6
20260905082504 23 37 0.0 0.0 0.00 0.00 0.00 92 1013.6
20260905081946 23 37 0.0 0.0 0.00 0.00 0.00 92 1013.6
20260905081446 23 37 0.0 0.0 0.00 0.00 0.00 92 1013.7
20260905075906 23 37 0.0 0.0 0.00 0.00 0.00 92 1013.7
20260905074848 23 37 0.0 0.0 0.00 0.00 0.00 92 1013.7
20260905074347 23 37 0.0 0.0 0.00 0.00 0.00 92 1013.7
20260905073328 23 37 0.0 0.0 0.00 0.00 0.00 92 1013.8
20260905072818 23 37 0.0 0.0 0.00 0.00 0.00 92 1014.0
20260905071801 23 37 0.0 0.0 0.00 0.00 0.00 91 1013.9
20260905071250 23 37 0.0 0.0 0.00 0.00 0.00 92 1014.0
20260905070738 23 37 0.0 0.0 0.00 0.00 0.00 92 1014.1
20260905070231 23 37 0.0 0.0 0.00 0.00 0.00 92 1014.1
20260905065215 23 37 0.0 0.0 0.00 0.00 0.00 92 1014.1
20260905064704 23 37 0.0 0.0 0.00 0.00 0.00 92 1014.1
20260905063159 24 37 0.0 0.0 0.00 0.00 0.00 92 1014.3
20260905062700 24 37 0.0 0.0 0.00 0.00 0.00 92 1014.3
20260905062200 24 37 0.0 0.0 0.00 0.00 0.00 92 1014.3
20260905061659 24 37 0.0 0.0 0.00 0.00 0.00 92 1014.3
20260905061154 24 37 0.0 0.0 0.00 0.00 0.00 92 1014.4
20260905060642 24 37 0.0 0.0 0.00 0.00 0.00 92 1014.5
20260905055626 24 37 0.0 0.0 0.00 0.00 0.00 92 1014.5
20260905055118 24 37 0.0 0.0 0.00 0.00 0.00 91 1014.6
20260905054607 24 37 0.0 0.0 0.00 0.00 0.00 91 1014.7
20260905053605 24 37 0.0 0.0 0.00 0.00 0.00 91 1014.6
20260905053106 24 37 0.0 0.0 0.00 0.00 0.00 91 1014.8
20260905052603 24 37 0.0 0.0 0.00 0.00 0.00 91 1014.9
20260905052051 24 37 0.0 0.0 0.00 0.00 0.00 91 1014.8
20260905051548 24 37 0.0 0.0 0.00 0.00 0.00 91 1014.8
20260905051033 24 37 0.0 0.0 0.00 0.00 0.00 91 1014.9
20260905050532 25 37 0.0 0.0 0.00 0.00 0.00 91 1014.8
20260905050018 25 37 0.0 1.6 0.00 0.00 0.00 91 1014.9
20260905045510 25 37 0.0 1.6 0.00 0.00 0.00 91 1015.0
20260905044444 25 37 0.0 0.0 0.00 0.00 0.00 90 1014.9
20260905043941 25 37 0.0 0.0 0.00 0.00 0.00 90 1015.0
20260905042920 25 37 0.0 0.0 0.00 0.00 0.00 91 1015.1
20260905042421 25 37 0.0 0.0 0.00 0.00 0.00 91 1015.1
20260905041919 25 37 0.0 0.0 0.00 0.00 0.00 91 1015.1
20260905041402 25 37 0.0 0.0 0.00 0.00 0.00 91 1015.2
20260905040902 25 37 0.0 0.0 0.00 0.00 0.00 90 1015.1
20260905040356 25 37 0.0 0.0 0.00 0.00 0.00 90 1015.1
20260905035856 25 37 0.0 0.0 0.00 0.00 0.00 90 1015.1
20260905034836 25 37 0.0 0.0 0.00 0.00 0.00 89 1014.9
20260905033806 25 37 0.0 0.0 0.00 0.00 0.00 89 1015.1
20260905033253 25 37 0.0 0.0 0.00 0.00 0.00 89 1015.0
20260905032745 25 37 0.0 0.0 0.00 0.00 0.00 89 1015.0
20260905032241 25 37 0.0 0.0 0.00 0.00 0.00 89 1015.0
20260905031743 26 37 0.0 0.0 0.00 0.00 0.00 89 1015.1
20260905031221 26 37 0.0 0.0 0.00 0.00 0.00 89 1015.2
20260905030721 26 37 0.0 0.0 0.00 0.00 0.00 90 1015.2
20260905030201 26 37 0.0 0.0 0.00 0.00 0.00 89 1015.2
20260905025656 26 37 0.0 0.0 0.00 0.00 0.00 89 1015.1
20260905025139 26 37 0.0 0.0 0.00 0.00 0.00 89 1015.1
20260905024636 26 37 0.0 0.0 0.00 0.00 0.00 89 1015.0
20260905023613 26 37 0.0 0.0 0.00 0.00 0.00 89 1015.0
20260905023110 26 37 0.0 0.0 0.00 0.00 0.00 88 1014.8
20260905022607 26 37 0.0 0.0 0.00 0.00 0.00 88 1014.8
20260905022107 26 37 0.0 0.0 0.00 0.00 0.00 87 1014.9
20260905021600 26 37 0.0 0.0 0.00 0.00 0.00 88 1014.8
20260905021104 26 37 0.0 0.0 0.00 0.00 0.00 87 1014.9
20260905020550 27 37 0.0 0.0 0.00 0.00 0.00 88 1015.0
20260905020050 27 37 0.0 0.0 0.00 0.00 0.00 88 1015.1
20260905015041 27 37 0.0 0.0 0.00 0.00 0.00 87 1014.9
20260905014522 27 37 0.0 0.0 0.00 0.00 0.00 87 1015.0
20260905014019 27 37 0.0 0.0 0.00 0.00 0.00 87 1015.0
20260905013518 27 37 0.0 0.0 0.00 0.00 0.00 87 1015.0
20260905013018 27 37 0.0 0.0 0.00 0.00 0.00 86 1015.0
20260905012504 27 37 0.0 0.0 0.00 0.00 0.00 87 1015.0
20260905011958 28 37 0.0 0.0 0.00 0.00 0.00 86 1015.0
20260905010948 28 37 0.0 0.0 0.00 0.00 0.00 86 1015.0
20260905010444 28 37 0.0 0.0 0.00 0.00 0.00 85 1015.0
20260905004908 28 37 0.0 0.0 0.00 0.00 0.00 84 1014.8
20260905004409 29 37 0.0 0.0 0.00 0.00 0.00 84 1014.7
20260905003904 29 37 0.0 0.0 0.00 0.00 0.00 82 1014.7
20260905003402 29 37 0.0 0.0 0.00 0.00 0.00 81 1014.6
20260905002903 29 37 0.0 0.0 0.00 0.00 0.00 82 1014.7
20260905002342 30 37 0.0 0.0 0.00 0.00 0.00 82 1014.6
20260905001842 30 37 0.0 0.0 0.00 0.00 0.00 82 1014.7
20260905001339 30 37 0.0 0.0 0.00 0.00 0.00 81 1014.7
20260905000839 30 37 0.0 0.0 0.00 0.00 0.00 81 1014.8
20260904235312 31 37 0.0 0.0 0.00 0.00 0.00 78 1014.7
20260904234801 31 37 0.0 0.0 0.00 0.00 0.00 76 1014.6
20260904234258 31 37 0.0 0.0 0.00 0.00 0.00 77 1014.7
20260904233759 31 37 0.0 0.0 0.00 0.00 0.00 76 1014.7
20260904232747 31 37 0.0 0.0 0.00 0.00 0.00 74 1014.8
20260904232232 31 37 0.0 0.0 0.00 0.00 0.00 74 1014.8
20260904231728 32 37 0.0 0.0 0.00 0.00 0.00 74 1014.7
20260904231218 32 37 0.0 0.0 0.00 0.00 0.00 72 1014.7
20260904230710 32 37 0.0 0.0 0.00 0.00 0.00 72 1014.8
20260904230209 32 37 0.0 0.0 0.00 0.00 0.00 72 1014.7
20260904224647 33 37 0.0 3.2 0.00 0.00 0.00 68 1014.6
20260904224144 33 37 0.0 3.2 0.00 0.00 0.00 69 1014.6
20260904223646 33 37 0.0 4.8 0.00 0.00 0.00 68 1014.7
20260904222642 33 48 1.6 4.8 0.00 0.00 0.00 67 1014.8
20260904222138 34 48 1.6 4.8 0.00 0.00 0.00 68 1014.8
20260904221626 34 55 0.0 1.6 0.00 0.00 0.00 67 1014.8
20260904221128 34 59 0.0 0.0 0.00 0.00 0.00 65 1014.9
20260904220612 35 59 0.0 4.8 0.00 0.00 0.00 65 1015.0
20260904220105 35 59 0.0 4.8 0.00 0.00 0.00 63 1015.0
20260904215601 35 19 0.0 4.8 0.00 0.00 0.00 62 1015.0
20260904214548 35 53 0.0 4.8 0.00 0.00 0.00 61 1015.0
20260904214046 35 84 0.0 4.8 0.00 0.00 0.00 61 1015.1
20260904213544 35 20 0.0 1.6 0.00 0.00 0.00 62 1015.1
20260904213042 35 20 0.0 4.8 0.00 0.00 0.00 62 1015.1
20260904212511 35 20 0.0 6.4 0.00 0.00 0.00 63 1015.1
20260904212007 35 355 0.0 6.4 0.00 0.00 0.00 58 1015.1
20260904211509 36 5 0.0 0.0 0.00 0.00 0.00 61 1015.3
20260904210500 36 5 0.0 0.0 0.00 0.00 0.00 63 1015.5
20260904205930 36 5 0.0 0.0 0.00 0.00 0.00 61 1015.5
20260904205424 36 5 0.0 0.0 0.00 0.00 0.00 59 1015.6
20260904204920 36 351 1.6 11.3 0.00 0.00 0.00 61 1015.6
20260904204400 36 109 1.6 11.3 0.00 0.00 0.00 61 1015.6
20260904203857 37 299 0.0 1.6 0.00 0.00 0.00 62 1015.7
20260904202839 37 56 0.0 0.0 0.00 0.00 0.00 63 1015.8
20260904202326 36 56 1.6 4.8 0.00 0.00 0.00 61 1015.9
20260904201829 36 56 1.6 4.8 0.00 0.00 0.00 58 1016.0
20260904201325 36 58 0.0 3.2 0.00 0.00 0.00 61 1016.1
20260904195810 36 12 1.6 3.2 0.00 0.00 0.00 62 1016.5
20260904195310 36 12 1.6 3.2 0.00 0.00 0.00 63 1016.6
20260904194808 36 12 1.6 4.8 0.00 0.00 0.00 64 1016.6
20260904193756 36 86 1.6 6.4 0.00 0.00 0.00 61 1016.7
20260904193254 36 34 1.6 3.2 0.00 0.00 0.00 64 1016.7
20260904192232 36 29 1.6 6.4 0.00 0.00 0.00 58 1017.0
20260904191733 35 5 1.6 4.8 0.00 0.00 0.00 65 1017.0